OBJECT J, 63218

Orbit data source: Space-Track

You're viewing an uncataloged RSO

Recently launched and/or uncataloged RSOs may have evolving metadata. Metadata may include the following, but is not limited to: Owner, Manufacturer, Bus, Motor, and Mission.

OBJECT J, 63218 is a satellite in SSO that was launched on Sat, 15 Mar 2025 UTC via an FALCON 9 launch vehicle from the Air Force Western Test Range (AFWTR). Unknown objects in Earth's orbit typically refer to objects detected orbiting the Earth but have not yet been identified or cataloged. These objects could be anything from previously untracked satellites, spent rocket stages, debris from satellite collisions, or even natural meteoroids temporarily captured by Earth's gravity.

Loading next visibility...
Identifier
63218, 2025-052J
Orbit
SSO
Country
Flag of TBDTBD
Related business
Flag of ILTel Aviv University (IL)
Manufacturer
ISA/TAU
Mission
Operational Amateur Communications
Bus & Motor
CUBESAT 1U, Unknown motor
Mass
1 kg wet, 1 kg dry
Launch date (UTC)
2025-03-15 (1 year ago)
Launch vehicle
FALCON 9
Launch site
Air Force Western Test Range (AFWTR)
Object type
Unknown
Shape & HBR
Box, 1.1 m
Radar Cross Section
0.015 m², Medium (>0.1 m² and < 1m²)

Expand to show TLE details & history
Last TLE update: 6 hours ago

TLE from 6 hours ago
0 OBJECT J
1 63218U 25052J   26249.64788460  .00011950  00000-0  33808-3 0  9991
2 63218  97.3759 145.7427 0002795 145.2842 214.8585 15.36455861 82592
Epoch: 2026-09-06T15:32Z
TLE epoch observation values (Epoch: 2026-09-06T15:32:57.229Z)
Latitude
-0.00002°
Longitude
-73.23574°
Altitude
461.281 km
Speed
7.635 km/s
True Right ascension
09h 42m 58s
True Declination
0° 00' 00"
Sunlit
Object was in daylight at epoch
Visualization orbit readout
Latitude
Unknown
Longitude
Unknown
Altitude
Unknown
Speed
Unknown
Apparent Right ascension
Unknown
Apparent Declination
Unknown
Sunlit
N/A
Visualization observer readout
Local Sidereal Time
13:41:01
Azimuth
Unknown
Elevation
Unknown
Doppler factor
Unknown
Orbital elements
Apogee altitude
455.452 km
Perigee altitude
451.633 km
Semi-major axis
6,831.679 km
Eccentricity
0.00028
Inclination
97.3759°
RAAN
145.7427°
Arg. of periapsis
145.2842°
True anomaly
214.8402°
Mean anomaly
214.8585°
Eccentric anomaly
214.84935°
Mean motion
3.84372 °/min
Orbital period
93.66 mins
BSTAR
0.00033808
Loading maneuver chart data...
Computing Atmospheric mass density...
Loading historical data...
Loading historical data...
Loading historical data...
Loading historical data...
Loading historical data...
Loading historical data...
Loading historical data...

Documentation

Showing up to 5 results
|